This demonstration page uses our WeatherBlox Daily Observations layout. Learn more.

Left ArrowRight Arrow

Hourly Observations for August 30, 2019

Temp ( °F °C ) Dew Point ( °F °C ) Humidity (%) Winds ( mph kmh ) Pressure ( in mb ) Visibility ( mi km ) Precip ( " mm )
12:56 am 00:56 Mostly Cloudy 70 21 55 13 60 60 ENE 9 15 30.02 1017 10 16 0.00 0.00
1:13 am 01:13 Mostly Cloudy with Light Showers 68 20 55 13 64 64 NE 9 15 30.00 1016 10 16 0.00 0.00
1:27 am 01:27 Mostly Cloudy 68 20 57 14 69 69 NE 9 15 30.00 1016 10 16 0.00 0.00
1:56 am 01:56 Mostly Cloudy 68 20 55 13 64 64 NNE 7 11 30.02 1017 10 16 0.00 0.00
2:56 am 02:56 Mostly Cloudy 68 20 55 13 64 64 E 6 9 30.06 1018 10 16 0.00 0.00
3:56 am 03:56 Mostly Cloudy 68 20 55 13 64 64 NE 6 9 30.07 1018 10 16 0.00 0.00
4:56 am 04:56 Cloudy N/A N/A N/A NE 7 11 N/A 10 16 0.00 0.00
5:56 am 05:56 Cloudy 68 20 55 13 64 64 ENE 12 19 30.11 1020 10 16 0.00 0.00
6:56 am 06:56 Mostly Cloudy 66 19 54 12 64 64 NE 9 15 30.13 1020 10 16 0.00 0.00
7:56 am 07:56 Cloudy 66 19 54 12 64 64 ENE 12 19 30.14 1021 10 16 0.00 0.00
8:56 am 08:56 Mostly Cloudy 66 19 54 12 64 64 NE 10 17 30.16 1021 10 16 0.00 0.00
9:56 am 09:56 Mostly Cloudy 68 20 52 11 56 56 ENE 10 17 30.16 1022 10 16 0.00 0.00
10:56 am 10:56 Mostly Cloudy 70 21 52 11 53 53 E 8 13 30.19 1022 10 16 0.00 0.00
11:56 am 11:56 Mostly Sunny 72 22 52 11 50 50 ENE 7 11 30.19 1022 10 16 0.00 0.00
12:56 pm 12:56 Mostly Sunny 73 23 54 12 50 50 NNE 7 11 N/A 10 16 0.00 0.00
1:56 pm 13:56 Mostly Sunny 73 23 54 12 50 50 NNE 6 9 30.17 1022 10 16 0.00 0.00
2:56 pm 14:56 Mostly Sunny 73 23 55 13 53 53 N 7 11 30.17 1022 10 16 0.00 0.00
3:56 pm 15:56 Mostly Cloudy 75 24 55 13 50 50 N 6 9 30.17 1022 10 16 0.00 0.00
4:56 pm 16:56 Mostly Cloudy 75 24 57 14 54 54 NNE 5 7 30.16 1021 10 16 0.00 0.00
5:56 pm 17:56 Mostly Cloudy 75 24 59 15 57 57 ENE 7 11 30.14 1021 10 16 0.00 0.00
6:56 pm 18:56 Mostly Cloudy 73 23 59 15 61 61 E 9 15 30.16 1021 10 16 0.00 0.00
7:56 pm 19:56 Mostly Cloudy 72 22 61 16 69 69 E 6 9 30.15 1021 10 16 0.00 0.00
8:56 pm 20:56 Cloudy 72 22 59 15 65 65 ENE 7 11 30.17 1022 10 16 0.00 0.00
9:56 pm 21:56 Cloudy 70 21 59 15 69 69 ENE 7 11 30.18 1022 10 16 0.00 0.00
10:56 pm 22:56 Mostly Cloudy 68 20 59 15 73 73 E 3 6 30.21 1023 10 16 0.00 0.00
11:56 pm 23:56 Mostly Cloudy 68 20 57 14 69 69 ENE 5 7 30.23 1024 10 16 0.00 0.00

Powered by AerisWeather